Track STARLINK-2602 now! 10-day predictions STARLINK-2602 is classified as:
1 48393U 21038AS 22183.52113351 -.00000078 00000-0 13691-4 0 9998 2 48393 53.0535 264.8159 0001633 62.3841 297.7314 15.06400374 64993